When you browse on this site, cookies collect data to enhance your experience and personalize the content and advertising you see.
Visit our Privacy Policy to learn more. By continuing to use the site, you agree to this use of cookies and data.
  • In Latvia
  • List of Countries
  • For 7 days
  • Water Temperature
  • Weather Map
  • Weather Widgets
  • user-avatar
    Login

    Hourly Weather Zahla

    Today, 19 August, Monday

    Time Temperature Precipitation Wind Pressure Humidity
    00:00 +16°C° 0 mm 1 mps 669 mmHg 82%
    01:00 +16°C° 0 mm 1 mps 669 mmHg 81%
    02:00 +15°C° 0 mm 1 mps 668 mmHg 81%
    03:00 +15°C° 0 mm 1 mps 669 mmHg 80%
    04:00 +15°C° 0 mm 1 mps 669 mmHg 79%
    05:00 +14°C° 0 mm 1 mps 669 mmHg 78%
    06:00 +18°C° 0 mm 1 mps 670 mmHg 66%
    07:00 +20°C° 0 mm 2 mps 671 mmHg 54%
    08:00 +25°C° 0 mm 2 mps 672 mmHg 41%
    09:00 +26°C° 0 mm 3 mps 672 mmHg 37%
    10:00 +28°C° 0 mm 3 mps 673 mmHg 32%
    11:00 +30°C° 0 mm 4 mps 673 mmHg 27%
    12:00 +30°C° 0 mm 4 mps 673 mmHg 29%
    13:00 +30°C° 0 mm 4 mps 673 mmHg 31%
    14:00 +30°C° 0 mm 5 mps 673 mmHg 34%
    15:00 +29°C° 0 mm 4 mps 672 mmHg 39%
    16:00 +28°C° 0 mm 4 mps 672 mmHg 44%
    17:00 +27°C° 0 mm 4 mps 672 mmHg 50%
    18:00 +24°C° 0 mm 3 mps 672 mmHg 58%
    19:00 +21°C° 0 mm 2 mps 671 mmHg 67%
    20:00 +19°C° 0 mm 1 mps 671 mmHg 76%
    21:00 +19°C° 0 mm 1 mps 671 mmHg 70%
    22:00 +18°C° 0 mm 1 mps 671 mmHg 63%
    23:00 +18°C° 0 mm 1 mps 671 mmHg 57%

    Tomorrow, 20 August, Tuesday

    Time Temperature Precipitation Wind Pressure Humidity
    00:00 +16°C° 0 mm 1 mps 670 mmHg 56%
    01:00 +16°C° 0 mm 1 mps 670 mmHg 54%
    02:00 +16°C° 0 mm 1 mps 670 mmHg 53%
    03:00 +15°C° 0 mm 1 mps 670 mmHg 56%
    04:00 +15°C° 0 mm 1 mps 670 mmHg 60%
    05:00 +14°C° 0 mm 1 mps 670 mmHg 63%
    06:00 +18°C° 0 mm 1 mps 671 mmHg 51%
    07:00 +21°C° 0 mm 2 mps 672 mmHg 40%
    08:00 +26°C° 0 mm 2 mps 673 mmHg 28%
    09:00 +27°C° 0 mm 3 mps 674 mmHg 27%
    10:00 +28°C° 0 mm 3 mps 674 mmHg 26%
    11:00 +30°C° 0 mm 4 mps 674 mmHg 26%
    12:00 +30°C° 0 mm 4 mps 674 mmHg 27%
    13:00 +30°C° 0 mm 4 mps 674 mmHg 28%
    14:00 +30°C° 0 mm 5 mps 674 mmHg 29%
    15:00 +29°C° 0 mm 4 mps 674 mmHg 29%
    16:00 +28°C° 0 mm 4 mps 673 mmHg 30%
    17:00 +27°C° 0 mm 3 mps 673 mmHg 31%
    18:00 +24°C° 0 mm 2 mps 673 mmHg 40%
    19:00 +20°C° 0 mm 2 mps 672 mmHg 49%
    20:00 +18°C° 0 mm 1 mps 672 mmHg 57%
    21:00 +16°C° 0 mm 1 mps 671 mmHg 59%
    22:00 +16°C° 0 mm 1 mps 671 mmHg 60%
    23:00 +15°C° 0 mm 1 mps 671 mmHg 61%

    Day after tomorrow, 21 August, Wednesday

    Time Temperature Precipitation Wind Pressure Humidity
    00:00 +15°C° 0 mm 1 mps 671 mmHg 63%
    01:00 +15°C° 0 mm 1 mps 671 mmHg 65%
    02:00 +15°C° 0 mm 1 mps 670 mmHg 67%
    03:00 +15°C° 0 mm 1 mps 670 mmHg 69%
    04:00 +15°C° 0 mm 1 mps 670 mmHg 71%
    05:00 +14°C° 0 mm 1 mps 670 mmHg 74%
    06:00 +19°C° 0 mm 1 mps 671 mmHg 62%
    07:00 +22°C° 0 mm 1 mps 672 mmHg 51%
    08:00 +25°C° 0 mm 2 mps 673 mmHg 40%
    09:00 +27°C° 0 mm 2 mps 674 mmHg 36%
    10:00 +28°C° 0 mm 3 mps 674 mmHg 33%
    11:00 +30°C° 0 mm 3 mps 674 mmHg 29%
    12:00 +30°C° 0 mm 3 mps 674 mmHg 30%
    13:00 +30°C° 0 mm 4 mps 674 mmHg 31%
    14:00 +30°C° 0 mm 4 mps 674 mmHg 32%
    15:00 +29°C° 0 mm 3 mps 673 mmHg 35%
    16:00 +28°C° 0 mm 3 mps 673 mmHg 37%
    17:00 +28°C° 0 mm 3 mps 673 mmHg 40%
    18:00 +25°C° 0 mm 2 mps 672 mmHg 51%
    19:00 +22°C° 0 mm 1 mps 672 mmHg 62%
    20:00 +19°C° 0 mm 1 mps 671 mmHg 72%
    21:00 +18°C° 0 mm 1 mps 671 mmHg 73%
    22:00 +18°C° 0 mm 1 mps 671 mmHg 73%
    23:00 +16°C° 0 mm 1 mps 671 mmHg 73%

    22 August, Thursday

    Time Temperature Precipitation Wind Pressure Humidity
    00:00 +16°C° 0 mm 1 mps 671 mmHg 71%
    01:00 +16°C° 0 mm 1 mps 670 mmHg 69%
    02:00 +15°C° 0 mm 1 mps 670 mmHg 67%
    03:00 +15°C° 0 mm 1 mps 670 mmHg 66%
    04:00 +15°C° 0 mm 1 mps 670 mmHg 65%
    05:00 +15°C° 0 mm 1 mps 670 mmHg 63%
    06:00 +20°C° 0 mm 1 mps 671 mmHg 52%
    07:00 +23°C° 0 mm 1 mps 672 mmHg 42%
    08:00 +27°C° 0 mm 1 mps 673 mmHg 31%
    09:00 +29°C° 0 mm 1 mps 673 mmHg 29%
    10:00 +30°C° 0 mm 2 mps 674 mmHg 28%
    11:00 +32°C° 0 mm 2 mps 674 mmHg 26%
    12:00 +33°C° 0 mm 3 mps 674 mmHg 27%
    13:00 +33°C° 0 mm 3 mps 674 mmHg 27%
    14:00 +34°C° 0 mm 4 mps 673 mmHg 28%
    15:00 +33°C° 0 mm 3 mps 673 mmHg 30%
    16:00 +31°C° 0 mm 3 mps 672 mmHg 33%
    17:00 +30°C° 0 mm 2 mps 672 mmHg 36%
    18:00 +27°C° 0 mm 2 mps 672 mmHg 45%
    19:00 +24°C° 0 mm 2 mps 671 mmHg 54%
    20:00 +21°C° 0 mm 1 mps 670 mmHg 63%
    21:00 +20°C° 0 mm 1 mps 670 mmHg 63%
    22:00 +20°C° 0 mm 1 mps 670 mmHg 63%
    23:00 +19°C° 0 mm 1 mps 670 mmHg 64%

    23 August, Friday

    Time Temperature Precipitation Wind Pressure Humidity
    00:00 +19°C° 0 mm 1 mps 670 mmHg 64%
    01:00 +18°C° 0 mm 1 mps 669 mmHg 64%
    02:00 +18°C° 0 mm 1 mps 669 mmHg 64%
    03:00 +18°C° 0 mm 1 mps 669 mmHg 63%
    04:00 +18°C° 0 mm 1 mps 669 mmHg 62%
    05:00 +18°C° 0 mm 1 mps 669 mmHg 61%
    06:00 +21°C° 0 mm 1 mps 670 mmHg 50%
    07:00 +25°C° 0 mm 1 mps 671 mmHg 38%
    08:00 +29°C° 0 mm 1 mps 672 mmHg 27%
    09:00 +30°C° 0 mm 1 mps 672 mmHg 25%
    10:00 +32°C° 0 mm 2 mps 673 mmHg 23%
    11:00 +35°C° 0 mm 3 mps 673 mmHg 21%
    12:00 +35°C° 0 mm 3 mps 673 mmHg 21%
    13:00 +36°C° 0 mm 4 mps 673 mmHg 21%
    14:00 +36°C° 0 mm 4 mps 672 mmHg 21%
    15:00 +36°C° 0 mm 4 mps 672 mmHg 22%
    16:00 +35°C° 0 mm 3 mps 672 mmHg 23%
    17:00 +34°C° 0 mm 2 mps 671 mmHg 24%
    18:00 +30°C° 0 mm 2 mps 671 mmHg 35%
    19:00 +26°C° 0 mm 1 mps 670 mmHg 46%
    20:00 +23°C° 0 mm 1 mps 669 mmHg 57%
    21:00 +23°C° 0 mm 1 mps 669 mmHg 55%
    22:00 +23°C° 0 mm 1 mps 669 mmHg 53%
    23:00 +20°C° 0 mm 0 mps 669 mmHg 51%

    24 August, Saturday

    Time Temperature Precipitation Wind Pressure Humidity
    00:00 +20°C° 0 mm 0 mps 669 mmHg 52%
    01:00 +20°C° 0 mm 0 mps 669 mmHg 52%
    02:00 +22°C° 0 mm 1 mps 669 mmHg 53%
    03:00 +22°C° 0 mm 1 mps 669 mmHg 52%
    04:00 +22°C° 0 mm 1 mps 669 mmHg 50%
    05:00 +22°C° 0 mm 1 mps 669 mmHg 49%
    06:00 +25°C° 0 mm 1 mps 670 mmHg 39%
    07:00 +29°C° 0 mm 2 mps 671 mmHg 30%
    08:00 +34°C° 0 mm 2 mps 672 mmHg 21%
    09:00 +35°C° 0 mm 3 mps 672 mmHg 20%
    10:00 +36°C° 0 mm 3 mps 673 mmHg 19%
    11:00 +38°C° 0 mm 4 mps 673 mmHg 19%
    12:00 +39°C° 0 mm 5 mps 673 mmHg 19%
    13:00 +39°C° 0 mm 5 mps 672 mmHg 20%
    14:00 +39°C° 0 mm 6 mps 672 mmHg 21%
    15:00 +37°C° 0 mm 5 mps 672 mmHg 25%
    16:00 +35°C° 0 mm 4 mps 671 mmHg 29%
    17:00 +34°C° 0 mm 3 mps 671 mmHg 32%
    18:00 +30°C° 0 mm 2 mps 671 mmHg 44%
    19:00 +26°C° 0 mm 1 mps 670 mmHg 55%
    20:00 +23°C° 0 mm 1 mps 670 mmHg 66%
    21:00 +23°C° 0 mm 1 mps 670 mmHg 67%
    22:00 +22°C° 0 mm 1 mps 670 mmHg 68%
    23:00 +21°C° 0 mm 1 mps 670 mmHg 69%
    Show more